This demonstration page uses our WeatherBlox Daily Observations layout. Learn more.

Left ArrowRight Arrow

39.51506, -84.39828

Hourly Observations for January 7, 2015

Temp ( °F °C ) Dew Point ( °F °C ) Humidity (%) Winds ( mph kmh ) Pressure ( in mb ) Visibility ( mi km ) Precip ( " mm )
9:35 am 09:35 undefined N/A N/A N/A undefined N/A N/A N/A 0.00 0.00
9:55 am 09:55 undefined N/A N/A N/A undefined N/A N/A N/A 0.00 0.00
10:15 am 10:15 undefined 10 -12.3 -2 -18.9 58 58 WNW 15 24 30.56 1035 7 11 0.00 0.00
10:35 am 10:35 Sunny 10 -12 -2 -18.8 57 57 WNW 14 22 30.56 1035 10 16 0.00 0.00
10:55 am 10:55 Sunny 11 -11.8 -2 -18.8 56 56 WNW 17 28 30.56 1035 7 11 0.00 0.00
11:15 am 11:15 Sunny 12 -11.2 -1 -18.3 56 56 NW 18 30 30.59 1036 7 11 0.00 0.00
11:35 am 11:35 Sunny 12 -11.2 -1 -18.6 55 55 WNW 18 30 30.59 1036 10 16 0.00 0.00
11:55 am 11:55 Mostly Cloudy 12 -11.2 -1 -18.3 56 56 WNW 12 19 30.59 1036 7 11 0.00 0.00
12:15 pm 12:15 Cloudy 14 -9.8 1 -17.5 54 54 NW 18 30 30.59 1036 7 11 0.00 0.00
12:35 pm 12:35 Cloudy with Haze 14 -9.8 2 -16.7 57 57 NW 13 20 30.59 1036 3 5 0.00 0.00
12:55 pm 12:55 Cloudy 14 -9.8 0 -17.6 53 53 WNW 16 26 30.59 1036 7 11 0.00 0.00
1:15 pm 13:15 Partly Cloudy 14 -9.8 0 -17.9 52 52 WNW 18 30 30.59 1036 10 16 0.00 0.00
1:35 pm 13:35 Sunny 14 -9.8 -1 -18.1 51 51 NW 15 24 30.62 1037 10 16 0.00 0.00
1:55 pm 13:55 Partly Cloudy 14 -9.8 -1 -18.2 51 51 NW 13 20 30.62 1037 7 11 0.00 0.00
2:15 pm 14:15 Mostly Cloudy 14 -9.8 -1 -18.1 51 51 NW 20 31 30.62 1037 10 16 0.00 0.00
2:35 pm 14:35 Partly Cloudy 14 -9.8 -1 -18.5 49 49 NW 21 33 30.65 1038 10 16 0.00 0.00
2:55 pm 14:55 Partly Cloudy 12 -11.2 -4 -19.8 49 49 NW 15 24 30.65 1038 10 16 0.00 0.00
3:15 pm 15:15 Mostly Cloudy with Haze 12 -11.2 -2 -18.7 54 54 NW 14 22 30.68 1039 5 8 0.00 0.00
3:35 pm 15:35 Partly Cloudy 11 -11.5 -2 -19 54 54 NW 18 30 30.68 1039 10 16 0.00 0.00
3:55 pm 15:55 Partly Cloudy 12 -11.2 -3 -19.5 51 51 WNW 18 30 30.71 1040 10 16 0.00 0.00
4:15 pm 16:15 Sunny 10 -12 -4 -20.1 51 51 NW 16 26 30.74 1041 10 16 0.00 0.00
4:35 pm 16:35 Sunny 10 -12.1 -4 -20.2 51 51 NW 16 26 30.74 1041 10 16 0.00 0.00
4:55 pm 16:55 Sunny 9 -12.6 -5 -20.6 52 52 NW 16 26 30.74 1041 10 16 0.00 0.00
5:15 pm 17:15 Sunny 9 -12.6 -4 -20.2 53 53 WNW 13 20 30.77 1042 10 16 0.00 0.00
5:35 pm 17:35 Clear 9 -12.6 -4 -20 54 54 WNW 13 20 30.77 1042 10 16 0.00 0.00
5:55 pm 17:55 Clear 9 -12.6 -4 -20 54 54 WNW 12 19 30.80 1043 10 16 0.00 0.00
6:15 pm 18:15 Clear 9 -12.6 -4 -20 54 54 WNW 10 17 30.80 1043 10 16 0.00 0.00
6:35 pm 18:35 Clear 7 -14 -6 -21.1 55 55 WNW 9 15 30.80 1043 10 16 0.00 0.00
6:55 pm 18:55 Clear 7 -14 -6 -21.1 55 55 WNW 9 15 N/A 10 16 0.00 0.00
7:15 pm 19:15 Clear 7 -14 -6 -21.2 55 55 WNW 12 19 30.80 1043 10 16 0.00 0.00
7:35 pm 19:35 Clear 6 -14.3 -7 -21.4 55 55 WNW 12 19 30.83 1044 10 16 0.00 0.00
7:55 pm 19:55 Clear N/A N/A N/A WNW 10 17 N/A 10 16 0.00 0.00
8:15 pm 20:15 Clear 4 -15.5 -9 -22.5 55 55 WNW 13 20 30.83 1044 10 16 0.00 0.00
8:35 pm 20:35 undefined N/A N/A N/A undefined N/A N/A N/A 0.00 0.00
8:55 pm 20:55 undefined N/A N/A N/A undefined N/A N/A N/A 0.00 0.00
9:15 pm 21:15 undefined N/A N/A N/A undefined N/A N/A N/A 0.00 0.00
9:35 pm 21:35 undefined N/A N/A N/A undefined N/A N/A N/A 0.00 0.00
9:55 pm 21:55 undefined N/A N/A N/A undefined N/A N/A N/A 0.00 0.00
10:15 pm 22:15 undefined N/A N/A N/A undefined N/A N/A N/A 0.00 0.00
10:35 pm 22:35 undefined N/A N/A N/A undefined N/A N/A N/A 0.00 0.00
10:55 pm 22:55 undefined N/A N/A N/A undefined N/A N/A N/A 0.00 0.00
11:15 pm 23:15 undefined N/A N/A N/A undefined N/A N/A N/A 0.00 0.00
11:35 pm 23:35 undefined N/A N/A N/A undefined N/A N/A N/A 0.00 0.00
11:55 pm 23:55 undefined N/A N/A N/A undefined N/A N/A N/A 0.00 0.00

Powered by AerisWeather